This is the latest recevied weather packets stored in our database for station/object JF7BTK-10. If no packets are shown the sender has not sent any weather packets the latest 10 day(s).
| Time | Temp. | Humidity | Pressure | Rain* | Wind** | Luminosity | Snow |
|---|---|---|---|---|---|---|---|
| 1788486189 | 25° C | 59% | 1006.9 hPa | 0 mm | - | - | - |
| 1788485452 | 24.44° C | 64% | 1006.6 hPa | 0 mm | - | - | - |
| 1788485289 | 24.44° C | 63% | 1006.7 hPa | 0 mm | - | - | - |
| 1788485152 | 24.44° C | 64% | 1006.7 hPa | 0 mm | - | - | - |
| 1788484387 | 23.89° C | 66% | 1006.5 hPa | 0 mm | - | - | - |
| 1788483488 | 23.89° C | 71% | 1006.7 hPa | 0 mm | - | - | - |
| 1788482752 | 23.33° C | 70% | 1006.6 hPa | 0 mm | - | - | - |
| 1788482588 | 23.33° C | 70% | 1006.6 hPa | 0 mm | - | - | - |
| 1788482151 | 23.33° C | 71% | 1006.3 hPa | 0 mm | - | - | - |
| 1788481852 | 23.33° C | 70% | 1006.5 hPa | 0 mm | - | - | - |
| 1788481687 | 23.33° C | 70% | 1006.5 hPa | 0 mm | - | - | - |
| 1788481252 | 23.33° C | 70% | 1006.4 hPa | 0 mm | - | - | - |
| 1788480788 | 23.89° C | 71% | 1006.2 hPa | 0 mm | - | - | - |
| 1788480351 | 23.33° C | 71% | 1006 hPa | 0 mm | - | - | - |
| 1788479889 | 22.78° C | 73% | 1006 hPa | 0 mm | - | - | - |
| 1788479751 | 22.78° C | 72% | 1006 hPa | 0 mm | - | - | - |
| 1788478989 | 22.78° C | 73% | 1005.7 hPa | 0 mm | - | - | - |
| 1788478089 | 23.33° C | 71% | 1005.8 hPa | 0 mm | - | - | - |
| 1788477952 | 23.33° C | 71% | 1005.6 hPa | 0 mm | - | - | - |
| 1788477651 | 23.33° C | 72% | 1005.5 hPa | 0 mm | - | - | - |
| 1788477187 | 22.78° C | 74% | 1005.7 hPa | 0 mm | - | - | - |
| 1788476451 | 23.33° C | 78% | 1005.5 hPa | 0 mm | - | - | - |
| 1788476289 | 23.33° C | 80% | 1005.5 hPa | 0 mm | - | - | - |
| 1788476153 | 23.33° C | 81% | 1005.3 hPa | 0 mm | - | - | - |
| 1788475853 | 22.22° C | 81% | 1005.4 hPa | 0 mm | - | - | - |
* Rain latest hour (hover to see other rain measurements)
** Current wind speed in m/s (hover to see current wind gust speed)